TimeEDT,TemperatureF,Dew PointF,Humidity,Sea Level PressureIn,VisibilityMPH,Wind Direction,Wind SpeedMPH,Gust SpeedMPH,PrecipitationIn,Events,Conditions,WindDirDegrees,DateUTC
12:15 AM,57.4,57.4,100,30.10,10.0,Calm,Calm,-,N/A,,Clear,0,2013-09-30 04:15:00
12:35 AM,56.5,56.5,100,30.09,10.0,Calm,Calm,-,N/A,,Clear,0,2013-09-30 04:35:00
12:55 AM,55.9,55.9,100,30.09,10.0,Calm,Calm,-,N/A,,Clear,0,2013-09-30 04:55:00
1:15 AM,55.4,55.4,100,30.08,7.0,Calm,Calm,-,N/A,,Clear,0,2013-09-30 05:15:00
1:35 AM,55.0,55.0,100,30.08,7.0,Calm,Calm,-,N/A,,Clear,0,2013-09-30 05:35:00
1:55 AM,54.0,54.0,100,30.08,7.0,Calm,Calm,-,N/A,,Clear,0,2013-09-30 05:55:00
2:15 AM,53.1,53.1,100,30.08,7.0,Calm,Calm,-,N/A,,Clear,0,2013-09-30 06:15:00
2:35 AM,52.9,52.9,100,30.09,4.0,Calm,Calm,-,N/A,,Clear,0,2013-09-30 06:35:00
2:55 AM,52.7,52.7,100,30.08,10.0,Calm,Calm,-,N/A,,Clear,0,2013-09-30 06:55:00
3:15 AM,52.0,52.0,100,30.08,7.0,Calm,Calm,-,N/A,,Clear,0,2013-09-30 07:15:00
3:35 AM,51.8,51.8,100,30.09,7.0,Calm,Calm,-,N/A,,Clear,0,2013-09-30 07:35:00
3:55 AM,51.8,51.8,100,30.09,10.0,Calm,Calm,-,N/A,,Mostly Cloudy,0,2013-09-30 07:55:00
4:15 AM,52.5,52.5,100,30.09,10.0,Calm,Calm,-,N/A,,Mostly Cloudy,0,2013-09-30 08:15:00
4:35 AM,51.1,51.1,100,30.09,7.0,Calm,Calm,-,N/A,,Scattered Clouds,0,2013-09-30 08:35:00
4:55 AM,51.4,51.4,100,30.10,10.0,Calm,Calm,-,N/A,,Clear,0,2013-09-30 08:55:00
5:15 AM,51.1,51.1,100,30.10,5.0,Calm,Calm,-,N/A,,Clear,0,2013-09-30 09:15:00
5:35 AM,51.1,51.1,100,30.11,7.0,Calm,Calm,-,N/A,,Clear,0,2013-09-30 09:35:00
5:55 AM,50.4,50.4,100,30.11,7.0,Calm,Calm,-,N/A,,Clear,0,2013-09-30 09:55:00
6:15 AM,50.4,50.4,100,30.11,10.0,Calm,Calm,-,N/A,,Clear,0,2013-09-30 10:15:00
6:35 AM,49.3,49.3,100,30.12,4.0,Calm,Calm,-,N/A,,Scattered Clouds,0,2013-09-30 10:35:00
6:55 AM,50.0,50.0,100,30.12,2.5,Calm,Calm,-,N/A,,Overcast,0,2013-09-30 10:55:00
7:15 AM,49.6,49.6,100,30.13,1.2,Calm,Calm,-,N/A,,Overcast,0,2013-09-30 11:15:00
7:35 AM,50.0,50.0,100,30.13,3.0,Calm,Calm,-,N/A,,Mostly Cloudy,0,2013-09-30 11:35:00
7:55 AM,50.0,50.0,100,30.13,5.0,Calm,Calm,-,N/A,,Clear,0,2013-09-30 11:55:00
8:15 AM,50.5,50.5,100,30.13,10.0,Calm,Calm,-,N/A,,Clear,0,2013-09-30 12:15:00
8:35 AM,53.8,53.8,100,30.13,10.0,Calm,Calm,-,N/A,,Clear,0,2013-09-30 12:35:00
8:55 AM,55.8,55.8,100,30.13,10.0,Calm,Calm,-,N/A,,Clear,0,2013-09-30 12:55:00
9:15 AM,57.4,57.4,100,30.14,10.0,Calm,Calm,-,N/A,,Clear,0,2013-09-30 13:15:00
9:35 AM,58.8,58.8,100,30.14,10.0,Calm,Calm,-,N/A,,Clear,0,2013-09-30 13:35:00
9:55 AM,61.2,60.4,97,30.14,10.0,Calm,Calm,-,N/A,,Clear,0,2013-09-30 13:55:00
10:15 AM,63.0,59.7,89,30.15,10.0,Calm,Calm,-,N/A,,Clear,0,2013-09-30 14:15:00
10:35 AM,64.4,60.1,86,30.15,10.0,NE,3.5,-,N/A,,Clear,40,2013-09-30 14:35:00
10:55 AM,64.8,59.5,83,30.15,10.0,Calm,Calm,-,N/A,,Clear,0,2013-09-30 14:55:00
11:15 AM,66.0,59.2,79,30.15,10.0,Calm,Calm,-,N/A,,Clear,0,2013-09-30 15:15:00
11:35 AM,67.3,58.5,73,30.14,7.0,Calm,Calm,-,N/A,,Clear,0,2013-09-30 15:35:00
11:55 AM,69.1,59.5,72,30.15,10.0,Calm,Calm,-,N/A,,Clear,0,2013-09-30 15:55:00
12:15 PM,70.0,59.4,69,30.14,10.0,Calm,Calm,-,N/A,,Scattered Clouds,0,2013-09-30 16:15:00
12:35 PM,70.9,58.5,65,30.14,10.0,NNW,4.6,-,N/A,,Scattered Clouds,340,2013-09-30 16:35:00
12:55 PM,71.8,59.2,64,30.14,10.0,Calm,Calm,-,N/A,,Scattered Clouds,0,2013-09-30 16:55:00
1:15 PM,71.4,58.5,64,30.13,10.0,NW,3.5,-,N/A,,Mostly Cloudy,320,2013-09-30 17:15:00
1:35 PM,73.0,58.5,60,30.12,10.0,Calm,Calm,-,N/A,,Scattered Clouds,0,2013-09-30 17:35:00
1:55 PM,72.5,59.2,63,30.11,10.0,NNW,5.8,-,N/A,,Mostly Cloudy,330,2013-09-30 17:55:00
2:15 PM,74.1,59.2,59,30.10,10.0,NW,4.6,-,N/A,,Scattered Clouds,310,2013-09-30 18:15:00
2:35 PM,73.4,58.5,59,30.09,10.0,NNE,3.5,-,N/A,,Scattered Clouds,30,2013-09-30 18:35:00
2:55 PM,72.9,58.1,60,30.09,10.0,NNW,3.5,-,N/A,,Clear,340,2013-09-30 18:55:00
3:15 PM,72.3,58.1,61,30.08,10.0,NW,3.5,-,N/A,,Scattered Clouds,310,2013-09-30 19:15:00
3:35 PM,74.1,58.5,58,30.07,10.0,Calm,Calm,-,N/A,,Scattered Clouds,0,2013-09-30 19:35:00
3:55 PM,74.3,58.8,58,30.06,10.0,ENE,5.8,-,N/A,,Clear,70,2013-09-30 19:55:00
4:15 PM,74.3,58.8,58,30.06,10.0,Calm,Calm,-,N/A,,Mostly Cloudy,0,2013-09-30 20:15:00
4:35 PM,75.4,59.9,58,30.06,10.0,North,5.8,-,N/A,,Mostly Cloudy,360,2013-09-30 20:35:00
4:55 PM,72.1,59.9,65,30.06,10.0,NNE,3.5,-,N/A,,Scattered Clouds,20,2013-09-30 20:55:00
5:15 PM,73.9,58.5,58,30.06,10.0,Calm,Calm,-,N/A,,Clear,0,2013-09-30 21:15:00
5:35 PM,75.0,59.2,58,30.06,10.0,East,3.5,-,N/A,,Scattered Clouds,100,2013-09-30 21:35:00
5:55 PM,73.4,59.5,62,30.07,10.0,ENE,4.6,-,N/A,,Mostly Cloudy,60,2013-09-30 21:55:00
6:15 PM,73.4,59.2,61,30.07,10.0,East,4.6,-,N/A,,Scattered Clouds,80,2013-09-30 22:15:00
6:35 PM,71.8,60.3,67,30.07,10.0,Calm,Calm,-,N/A,,Clear,0,2013-09-30 22:35:00
6:55 PM,68.7,61.7,78,30.08,10.0,Calm,Calm,-,N/A,,Clear,0,2013-09-30 22:55:00
7:15 PM,66.4,62.2,86,30.08,10.0,Calm,Calm,-,N/A,,Clear,0,2013-09-30 23:15:00
7:35 PM,64.4,61.9,92,30.09,10.0,Calm,Calm,-,N/A,,Clear,0,2013-09-30 23:35:00
7:55 PM,63.1,61.3,94,30.09,10.0,Calm,Calm,-,N/A,,Clear,0,2013-09-30 23:55:00
8:15 PM,62.2,61.2,96,30.10,10.0,Calm,Calm,-,N/A,,Clear,0,2013-10-01 00:15:00
8:35 PM,61.0,61.0,100,30.11,10.0,Calm,Calm,-,N/A,,Clear,0,2013-10-01 00:35:00
8:55 PM,60.1,60.1,100,30.11,10.0,Calm,Calm,-,N/A,,Clear,0,2013-10-01 00:55:00
9:15 PM,59.7,59.7,100,30.11,10.0,Calm,Calm,-,N/A,,Clear,0,2013-10-01 01:15:00
9:35 PM,59.0,59.0,100,30.11,10.0,Calm,Calm,-,N/A,,Clear,0,2013-10-01 01:35:00
9:55 PM,58.5,58.5,100,30.12,7.0,Calm,Calm,-,N/A,,Clear,0,2013-10-01 01:55:00
10:15 PM,58.1,58.1,100,30.12,7.0,Calm,Calm,-,N/A,,Clear,0,2013-10-01 02:15:00
10:35 PM,57.6,57.6,100,30.13,7.0,Calm,Calm,-,N/A,,Clear,0,2013-10-01 02:35:00
10:55 PM,57.2,57.2,100,30.13,10.0,Calm,Calm,-,N/A,,Clear,0,2013-10-01 02:55:00
11:15 PM,57.2,57.2,100,30.14,7.0,Calm,Calm,-,N/A,,Clear,0,2013-10-01 03:15:00
11:35 PM,56.5,56.5,100,30.13,7.0,Calm,Calm,-,N/A,,Clear,0,2013-10-01 03:35:00
11:55 PM,56.5,56.5,100,30.13,1.8,Calm,Calm,-,N/A,,Unknown,0,2013-10-01 03:55:00